Regional Weather Roundup
Issued by NWS Goodland, KS

Home | Current Version | Previous Version | Text Only | Print | Product List | Glossary Off
Versions: 1 2 3 4 5 6 7 8 9 10 11 12 13 14 15 16 17 18 19 20 21 22 23 24 25 26 27 28 29 30 31 32 33 34 35 36 37 38 39 40 41 42 43 44 45 46 47 48 49 50

485
ASUS43 KGLD 291908
RWRGLD

GOODLAND FORECAST AREA HOURLY WEATHER ROUNDUP
NATIONAL WEATHER SERVICE GOODLAND KS
100 PM MDT FRI APR 29 2016

...OFFICIAL OBSERVATIONS...

CITY           SKY/WX    TMP DP  RH WIND       PRES   REMARKS
GOODLAND KS    LGT RAIN  38  36  92 NE16G24   29.90F
HILL CITY KS   LGT RAIN  42  40  92 NE14      29.98F FOG
IMPERIAL NEB   LGT RAIN  41  37  86 E18       29.97F
MCCOOK NEB     CLOUDY    42  38  85 E18       29.97F
AKRON CO       LGT SNOW  33  32  96 NE10      29.96S VSB 3/4
BURLINGTON CO  RAIN      37  34  89 NE18G26   29.89F FOG
LIMON CO       SNOW      33  31  92 N10       29.91F VSB 1/2
$$

...UNOFFICIAL OBSERVATIONS...

CITY           SKY/WX    TMP DP  RH WIND       PRES   REMARKS
COLBY KS       LGT RAIN  41  41 100 NE23      29.91F
GOVE KS          N/A     43  32  65 MISG        N/A
LENORA KS        N/A     41  32  70 MISG        N/A
NORTON KS      DRIZZLE   41  36  81 NE12      29.97F
SHARON SPRINGS   N/A     39  37  94 NE23G33     N/A
TRIBUNE KS     CLOUDY    41  37  87 NE25G36   29.85
KIT CARSON CO    N/A     36  33  90 MISG        N/A
YUMA CO          N/A     37  35  94 E15         N/A
$$




USA.gov is the U.S. government's official web portal to all federal, state and local government web resources and services.